7 * 24
多渠道服务支持
STARLINK-11733是美国于2025年5月21日发射的星链系列卫星,隶属于太空探索技术公司SpaceX打造的星链星座项目,该项目旨在为全球范围提供高速卫星互联网服务。此卫星加入星链星座后,将进一步拓展全球覆盖能力,为偏远、基础设施不足区域提升网络接入,完善星座服务效能。
美国
(US)
| 数据来源 | 国际轨道数据 |
| 星历时间: | 2026-09-11T14:00:02+0800 9小时前 查看轨道信息 |
| 半长轴: | 6734.515km |
| 偏心率: | 0.0001668 |
| 轨道倾角: | 43.001° |
| 近地点辐角 | 270.060° |
| 升交点赤经 | 59.671° |
| 平近点角 | 51.864° |
| 近地点: | 355.254km |
| 远地点: | 357.502km |
| 周期: | 91.668分钟 |
| 每日圈数: | 15.70881 |